{"data":{"norad_id":53933,"epoch":"2026-05-24T21:48:30.754656Z","epoch_age_seconds":83079,"freshness":"FRESH","line1":"1 53933U 22119AZ  26144.90868929 -.00000421  00000+0 -83935-5 0  9997","line2":"2 53933  53.2144 321.8170 0001232  78.4295 281.6836 15.08839399203474","mean_motion":15.08839399,"eccentricity":0.0001232,"inclination_deg":53.2144,"raan_deg":321.817,"arg_perigee_deg":78.4295,"mean_anomaly_deg":281.6836,"bstar":-8.3935e-6,"rev_number":20347,"period_min":95.437592692395,"perigee_km":538.89294289104,"apogee_km":540.59750907152,"semimajor_km":6917.8822259813,"source":"CELESTRAK","updated_at":"2026-05-25T13:38:17.615861Z"}}